Weather History for Ottawa International, ON

Change the Weather History Date:

Sunday, March 31, 2013

  Actual Average Record
Temperature  
Mean Temperature 40 °F -  
Max Temperature 52 °F 52 °F 71 °F (2006)
Min Temperature 29 °F 33 °F 17 °F (2003)
Degree Days  
Heating Degree Days 24    
Moisture  
Dew Point 29 °F    
Average Humidity 65    
Maximum Humidity 100    
Minimum Humidity 29    
Precipitation  
Precipitation 0.08 in 0.09 in - ()
Sea Level Pressure  
Sea Level Pressure 29.82 in    
Wind  
Wind Speed 7 mph ()    
Max Wind Speed 16 mph    
Max Gust Speed 28 mph    
Visibility 13.9 miles    
Events Rain    
Averages and records for this station are not official NWS values.
T = Trace of Precipitation, MM = Missing Value Source: Averaged Metar Reports

Daily Weather History Graph

Daily Weather History Graph

Search for Another Location

Airport:

Trip Planner

Search our weather history database for the weather conditions in past years. The results will help you decide how hot, cold, wet, or windy it might be!

Date:

Astronomy

Mar. 31, 2013 Rise Set
Actual Time 6:44 AM EDT 7:29 PM EDT
Civil Twilight 6:14 AM EDT 7:59 PM EDT
Nautical Twilight 5:39 AM EDT 8:35 PM EDT
Astronomical Twilight 5:02 AM EDT 9:12 PM EDT
Moon No Moon Rise 9:17 AM EDT (3/31)
Length of Visible Light 13h 44m
Length of Day
12h 45m
Waning Gibbous, 78% of the Moon is Illuminated
Mar 31
Waning Gibbous
Apr 3
Last Quarter
Apr 10
New
Apr 18
First Quarter
Apr 25
Full

Hourly Weather History & Observations

Time (EDT) Temp. Windchill Dew Point Humidity Pressure Visibility Wind Dir Wind Speed Gust Speed Precip Events Conditions
12:00 AM 35.6 °F 29.9 °F 23.0 °F 60% 30.04 in 15.0 mi South 6.9 mph - N/A   Mostly Cloudy
1:00 AM 35.6 °F 31.7 °F 21.2 °F 56% 30.04 in 15.0 mi South 4.6 mph - N/A   Mostly Cloudy
2:00 AM 33 °F - 22 °F 53% 30.03 in 15 mi South 6.9 mph - -   Overcast
2:00 AM 32.0 °F 25.6 °F 23.0 °F 69% 30.03 in 15.0 mi South 6.9 mph - N/A   Overcast
3:00 AM 32.0 °F 26.4 °F 21.2 °F 64% 30.01 in 15.0 mi South 5.8 mph - N/A   Overcast
4:00 AM 30.2 °F 24.3 °F 21.2 °F 69% 29.99 in 15.0 mi South 5.8 mph - N/A   Mostly Cloudy
5:00 AM 30.2 °F 25.4 °F 23.0 °F 75% 29.97 in 15.0 mi SSE 4.6 mph - N/A   Mostly Cloudy
6:00 AM 30.2 °F 26.7 °F 23.0 °F 75% 29.95 in 15.0 mi ESE 3.5 mph - N/A   Mostly Cloudy
7:00 AM 28.4 °F 23.3 °F 23.0 °F 80% 29.94 in 15.0 mi East 4.6 mph - N/A   Mostly Cloudy
8:00 AM 31 °F - 23 °F 64% 29.93 in 15 mi ENE 4.6 mph - -   Mostly Cloudy
8:00 AM 32.0 °F 27.5 °F 23.0 °F 69% 29.93 in 15.0 mi ENE 4.6 mph - N/A   Mostly Cloudy
9:00 AM 37.4 °F 32.1 °F 24.8 °F 60% 29.90 in 15.0 mi SE 6.9 mph - N/A   Mostly Cloudy
10:00 AM 41.0 °F 36.4 °F 24.8 °F 53% 29.88 in 15.0 mi SSE 6.9 mph - N/A   Mostly Cloudy
11:00 AM 44.6 °F 39.2 °F 24.8 °F 46% 29.85 in 15.0 mi South 10.4 mph - N/A   Mostly Cloudy
12:00 PM 48.2 °F - 24.8 °F 40% 29.82 in 15.0 mi SSE 10.4 mph - N/A   Mostly Cloudy
1:00 PM 48.2 °F - 24.8 °F 40% 29.78 in 15.0 mi SSE 8.1 mph - N/A   Mostly Cloudy
2:00 PM 49 °F - 26 °F 29% 29.75 in 15 mi SSE 10.4 mph - -   Mostly Cloudy
2:00 PM 50.0 °F - 26.6 °F 40% 29.75 in 15.0 mi SSE 10.4 mph - N/A   Mostly Cloudy
3:00 PM 51.8 °F - 28.4 °F 41% 29.71 in 15.0 mi SSE 12.7 mph - N/A   Mostly Cloudy
4:00 PM 51.8 °F - 30.2 °F 44% 29.69 in 15.0 mi South 11.5 mph 18.4 mph N/A   Mostly Cloudy
5:00 PM 50.0 °F - 30.2 °F 47% 29.67 in 15.0 mi South 10.4 mph - N/A   Overcast
6:00 PM 50.0 °F - 32.0 °F 50% 29.66 in 15.0 mi South 12.7 mph 25.3 mph N/A   Overcast
6:31 PM 48.2 °F - 35.6 °F 62% 29.68 in 12.0 mi South 13.8 mph 24.2 mph N/A Rain Light Rain
7:00 PM 44.6 °F 37.4 °F 39.2 °F 81% 29.68 in 12.0 mi South 16.1 mph 27.6 mph N/A Rain Light Rain
8:00 PM 41 °F - 39 °F 88% 29.68 in 12 mi South 13.8 mph - - Rain Light Rain
8:00 PM 41.0 °F 33.5 °F 39.2 °F 93% 29.68 in 12.0 mi South 13.8 mph 19.6 mph N/A Rain Light Rain
8:46 PM 39.2 °F 31.6 °F 37.4 °F 93% 29.68 in 12.0 mi South 12.7 mph 19.6 mph N/A Rain Light Rain
9:00 PM 39.2 °F 31.6 °F 37.4 °F 93% 29.67 in 12.0 mi South 12.7 mph 19.6 mph N/A Rain Light Rain
10:00 PM 39.2 °F 32.5 °F 37.4 °F 93% 29.65 in 12.0 mi South 10.4 mph - N/A Rain Light Rain
11:00 PM 39.2 °F 32.5 °F 39.2 °F 100% 29.62 in 7.0 mi South 10.4 mph - N/A Rain Light Rain
11:36 PM 39.2 °F 32.5 °F 39.2 °F 100% 29.61 in 10.0 mi South 10.4 mph - N/A Rain Light Rain